TimeAKST,TemperatureF,Dew PointF,Humidity,Sea Level PressureIn,VisibilityMPH,Wind Direction,Wind SpeedMPH,Gust SpeedMPH,PrecipitationIn,Events,Conditions,WindDirDegrees,DateUTC
12:53 AM,42.1,39.9,92,29.40,6.0,ESE,21.9,32.2,0.17,Rain,Rain,120,2012-11-16 09:53:00
1:19 AM,42.8,39.2,87,29.40,7.0,ESE,20.7,29.9,0.04,Rain,Rain,120,2012-11-16 10:19:00
1:53 AM,43.0,41.0,93,29.40,6.0,ESE,21.9,32.2,0.14,Rain,Rain,120,2012-11-16 10:53:00
2:33 AM,42.8,41.0,93,29.38,5.0,SE,20.7,29.9,0.09,Rain,Rain,130,2012-11-16 11:33:00
2:43 AM,42.8,41.0,93,29.38,6.0,SE,21.9,31.1,0.12,Rain,Rain,130,2012-11-16 11:43:00
3:53 AM,44.1,41.0,89,29.35,5.0,SE,19.6,38.0,0.12,Rain,Rain,130,2012-11-16 12:53:00
4:53 AM,44.1,41.0,89,29.35,5.0,SE,23.0,34.5,0.12,Rain,Rain,130,2012-11-16 13:53:00
5:53 AM,44.1,41.0,89,29.33,5.0,SE,19.6,29.9,0.15,Rain,Rain,140,2012-11-16 14:53:00
6:53 AM,42.1,39.9,92,29.34,5.0,SSE,20.7,38.0,0.16,Rain,Rain,160,2012-11-16 15:53:00
7:53 AM,39.9,37.9,93,29.38,7.0,Variable,6.9,-,0.11,Rain,Rain,0,2012-11-16 16:53:00
8:53 AM,39.9,37.0,89,29.40,8.0,SE,9.2,-,0.13,Rain,Light Rain,130,2012-11-16 17:53:00
9:53 AM,39.9,37.9,93,29.42,10.0,ESE,10.4,-,0.01,Rain,Light Rain,110,2012-11-16 18:53:00
10:43 AM,41.0,39.2,93,29.41,10.0,ESE,13.8,18.4,0.00,Rain,Light Rain,120,2012-11-16 19:43:00
10:53 AM,41.0,39.0,93,29.42,10.0,ESE,12.7,19.6,0.00,,Overcast,110,2012-11-16 19:53:00
11:02 AM,42.8,39.2,87,29.42,10.0,ESE,10.4,18.4,N/A,,Overcast,120,2012-11-16 20:02:00
11:19 AM,42.8,39.2,87,29.41,6.0,ESE,11.5,-,0.00,Rain,Light Rain,120,2012-11-16 20:19:00
11:46 AM,42.8,39.2,87,29.42,9.0,ESE,12.7,18.4,0.01,Rain,Light Rain,120,2012-11-16 20:46:00
11:53 AM,42.1,41.0,96,29.42,4.0,SE,9.2,-,0.01,Rain,Light Rain,130,2012-11-16 20:53:00
12:18 PM,42.8,41.0,93,29.42,7.0,SE,12.7,21.9,0.04,Rain,Light Rain,130,2012-11-16 21:18:00
12:34 PM,42.8,39.2,87,29.42,7.0,SE,11.5,20.7,0.04,Rain,Light Rain,140,2012-11-16 21:34:00
12:53 PM,43.0,39.9,89,29.43,10.0,SE,16.1,25.3,0.04,Rain,Light Rain,140,2012-11-16 21:53:00
1:03 PM,42.8,39.2,87,29.42,7.0,SE,12.7,24.2,0.01,Rain,Light Rain,130,2012-11-16 22:03:00
1:53 PM,42.1,39.0,89,29.43,7.0,SE,12.7,-,0.03,Rain,Light Rain,130,2012-11-16 22:53:00
2:53 PM,43.0,39.9,89,29.43,10.0,SE,13.8,21.9,0.03,Rain,Light Rain,130,2012-11-16 23:53:00
3:46 PM,42.8,39.2,87,29.42,10.0,ESE,12.7,23.0,0.02,,Overcast,120,2012-11-17 00:46:00
3:53 PM,43.0,39.0,86,29.43,10.0,ESE,10.4,21.9,0.02,,Overcast,120,2012-11-17 00:53:00
4:13 PM,42.8,39.2,87,29.42,10.0,ESE,12.7,21.9,N/A,,Overcast,120,2012-11-17 01:13:00
4:42 PM,42.8,37.4,81,29.42,10.0,SE,17.3,-,0.00,Rain,Light Rain,130,2012-11-17 01:42:00
4:53 PM,43.0,37.9,82,29.42,9.0,SE,13.8,-,0.00,Rain,Light Rain,130,2012-11-17 01:53:00
5:53 PM,43.0,37.9,82,29.40,10.0,ESE,11.5,17.3,0.01,,Mostly Cloudy,120,2012-11-17 02:53:00
6:53 PM,43.0,36.0,76,29.40,10.0,ESE,9.2,-,N/A,,Clear,110,2012-11-17 03:53:00
7:53 PM,43.0,34.0,71,29.39,10.0,ESE,9.2,-,N/A,,Mostly Cloudy,120,2012-11-17 04:53:00
8:53 PM,44.1,33.1,65,29.38,10.0,SE,4.6,-,N/A,,Mostly Cloudy,140,2012-11-17 05:53:00
9:53 PM,43.0,34.0,71,29.37,10.0,Calm,Calm,-,N/A,,Mostly Cloudy,0,2012-11-17 06:53:00
10:53 PM,42.1,34.0,73,29.36,10.0,ESE,3.5,-,N/A,,Overcast,120,2012-11-17 07:53:00
11:53 PM,43.0,34.0,71,29.34,10.0,East,5.8,16.1,0.00,Rain,Light Rain,100,2012-11-17 08:53:00